[[{"header":{"parameterUnit":"m.s-1","parameterCategory":1,"la1":30.2991,"la2":30.254,"lo1":-89.0895,"lo2":-89.0444,"dy":0.0017,"dx":0.0017,"nx":28,"ny":28,"refTime":"2024-04-20T21:00:00:Z","depth":0,"parameterNumber":2,"parameterNumberName":"U-component_of_WINDS"},"data":[0,0,0,0,0,0,0,0,0,0,0,0,0,0,0,0,0,0,0,0,0,0,0,0,0,0,0,0,0,0,0,0,0,0,0,0,0,0,0,0,0,0,0,0,0,0,0,0,0,0,0,0,0,0,0,0,0,0,-2.3427,-2.3428,0,-2.3509,-2.351,-2.3511,-2.351,-2.3509,-2.3508,-2.3507,-2.3588,-2.3591,-2.3594,0,0,0,0,0,0,0,0,0,0,0,0,0,-2.3266,-2.3269,-2.3427,-2.3428,-2.3429,-2.3509,-2.351,-2.3511,-2.3511,-2.3509,-2.3508,-2.3507,-2.3587,-2.3591,-2.3595,0,0,0,0,0,0,0,0,0,0,0,0,0,-2.3341,-2.327,-2.3427,-2.3439,-2.3441,-2.3509,-2.351,-2.3512,-2.3511,-2.3509,-2.3508,-2.3506,-2.3586,-2.359,-2.3595,-2.3656,0,0,-2.361,-2.3612,0,0,0,0,0,0,0,0,-2.3336,-2.3347,-2.3436,-2.3438,-2.344,-2.3498,-2.3483,-2.356,-2.3511,-2.3484,-2.3507,-2.3505,-2.3559,-2.3566,-2.3585,-2.366,-2.3663,-2.361,-2.3613,-2.3615,-2.3616,0,0,0,0,0,0,0,-2.3331,-2.3343,-2.346,-2.3437,-2.344,-2.3438,-2.3447,-2.3497,-2.353,-2.3486,-2.3487,-2.3496,-2.356,-2.358,-2.3587,-2.3665,-2.361,-2.3614,-2.3617,-2.3619,-2.3792,-2.3793,0,0,0,0,0,0,-2.3324,-2.3339,-2.3457,-2.3462,-2.3383,-2.3443,-2.3452,-2.3481,-2.3529,-2.3535,-2.3498,-2.3496,-2.3573,-2.3581,-2.359,-2.3663,-2.3615,-2.3619,-2.3622,-2.379,-2.3792,-2.3794,0,0,0,0,0,0,-2.3321,-2.3335,-2.3454,-2.34,-2.3415,-2.3447,-2.3479,-2.3483,-2.3504,-2.3538,-2.3543,-2.3513,-2.3572,-2.3583,-2.3639,-2.3666,-2.3621,-2.3626,-2.3788,-2.379,-2.3793,-2.3811,0,0,0,0,0,0,-2.3316,-2.3334,-2.3358,-2.3401,-2.3418,-2.3504,-2.3481,-2.3486,-2.3512,-2.3511,-2.3553,-2.3559,-2.3572,-2.3632,-2.3644,-2.3672,-2.3629,-2.3786,-2.3789,-2.3792,-2.3809,-2.3814,-2.3819,0,0,0,0,0,-2.331,-2.336,-2.336,-2.3374,-2.345,-2.3505,-2.3515,-2.353,-2.3515,-2.3539,-2.356,-2.3557,-2.3661,-2.3638,-2.3651,-2.3681,-2.3784,-2.3788,-2.3792,-2.3806,-2.3813,-2.3819,0,0,0,0,0,0,-2.3319,-2.3366,-2.3366,-2.3431,-2.3464,-2.3505,-2.3537,-2.3537,-2.3575,-2.3572,-2.3587,-2.3597,-2.3653,-2.3672,-2.3646,-2.3741,-2.372,-2.3727,-2.3727,-2.3734,-2.3739,-2.3733,-2.3633,0,0,0,0,0,-2.3329,-2.3371,-2.3409,-2.3463,-2.3479,-2.3505,-2.353,-2.3538,-2.3572,-2.3586,-2.3612,-2.3644,-2.3684,-2.371,-2.3748,-2.3811,-2.3819,-2.3837,-2.3843,-2.3847,-2.3853,-2.3885,-2.3894,-2.3807,-2.3807,-2.3807,0,0,-2.3349,-2.338,-2.3405,-2.3465,-2.3492,-2.3533,-2.3517,-2.3562,-2.3593,-2.3593,-2.3648,-2.3667,-2.3704,-2.3764,-2.3791,-2.3782,-2.3878,-2.3852,-2.3855,-2.3859,-2.389,-2.3898,-2.3906,-2.381,-2.3809,-2.3809,0,0,-2.3407,-2.3435,-2.3483,-2.3509,-2.355,-2.3566,-2.3577,-2.3618,-2.3631,-2.3686,-2.3687,-2.3722,-2.3791,-2.3817,-2.3839,-2.3904,-2.3903,-2.3916,-2.3945,-2.3976,-2.3983,-2.3989,-2.4011,-2.4019,-2.3922,-2.3922,-2.3922,0,-2.3427,-2.3491,-2.3507,-2.3552,-2.3577,-2.3579,-2.3626,-2.3651,-2.3702,-2.3718,-2.3707,-2.3792,-2.3817,-2.3882,-2.3898,-2.3916,-2.3928,-2.3912,-2.3981,-2.3987,-2.3993,-2.4014,-2.4023,-2.3923,-2.3923,-2.3923,-2.3923,0,-2.3513,-2.3557,-2.359,-2.364,-2.3669,-2.3714,-2.3735,-2.3762,-2.3767,-2.3784,-2.3839,-2.3869,-2.3913,-2.3929,-2.3934,-2.3994,-2.3986,-2.3978,-2.3957,-2.4003,-2.4023,-2.4031,-2.3925,-2.3925,-2.3924,-2.3924,0,0,-2.3581,-2.3637,-2.3648,-2.367,-2.3714,-2.3748,-2.3792,-2.3836,-2.3858,-2.3892,-2.3929,-2.3986,-2.3978,-2.4003,-2.4011,-2.4039,-2.4086,-2.4026,-2.4027,-2.4036,-2.4152,-2.4158,-2.4167,-2.4085,-2.4087,-2.4088,-2.4148,0,-2.3643,-2.3724,-2.3738,-2.3808,-2.3848,-2.3849,-2.3888,-2.3918,-2.3934,-2.3969,-2.3986,-2.4026,-2.4013,-2.4028,-2.4056,-2.4075,-2.411,-2.4071,-2.4118,-2.412,-2.4109,-2.4178,-2.4185,-2.424,-2.4156,-2.4158,-2.4159,0,-2.3727,-2.3764,-2.3838,-2.3875,-2.3892,-2.3927,-2.3967,-2.4,-2.4033,-2.4043,-2.407,-2.4074,-2.4119,-2.4096,-2.4156,-2.4129,-2.4149,-2.4161,-2.4163,-2.4168,-2.4142,-2.4184,-2.4258,-2.4266,-2.4172,-2.4171,-2.417,0,-2.3768,-2.3835,-2.3888,-2.3907,-2.3951,-2.3975,-2.3995,-2.4026,-2.4051,-2.4085,-2.4101,-2.4139,-2.416,-2.4189,-2.4203,-2.4185,-2.4261,-2.424,-2.4269,-2.4269,-2.4286,-2.4284,-2.4364,-2.4299,-2.4299,-2.4299,-2.4298,0,-2.3836,-2.3881,-2.3907,-2.394,-2.3989,-2.4004,-2.4052,-2.4071,-2.4098,-2.4133,-2.4136,-2.4168,-2.4184,-2.4218,-2.4229,-2.4276,-2.4286,-2.4293,-2.4296,-2.4293,-2.4292,-2.4306,-2.4303,-2.4301,-2.43,-2.43,-2.43,0,-2.389,-2.391,-2.3967,-2.4004,-2.4014,-2.4049,-2.408,-2.411,-2.4126,-2.4169,-2.418,-2.4204,-2.4244,-2.4261,-2.4309,-2.4316,-2.437,-2.437,-2.4359,-2.436,-2.4388,-2.4385,-2.4479,-2.4492,-2.4419,-2.442,-2.4421,0,-2.3933,-2.3967,-2.4008,-2.4032,-2.4052,-2.409,-2.4115,-2.413,-2.4155,-2.4194,-2.4219,-2.4259,-2.4292,-2.4355,-2.4376,-2.4413,-2.4413,-2.4443,-2.4418,-2.4414,-2.4412,-2.441,-2.4412,-2.4448,-2.4448,-2.4449,-2.4449,0,-2.4005,-2.4012,-2.4049,-2.4089,-2.4118,-2.415,-2.418,-2.4199,-2.4218,-2.4246,-2.4287,-2.4313,-2.4362,-2.4401,-2.4438,-2.4456,-2.4455,-2.4457,-2.4466,-2.4463,-2.4455,-2.4459,-2.4371,-2.4455,-2.4454,-2.4454,-2.4454,-2.4453,-2.4054,-2.4084,-2.4117,-2.4157,-2.4182,-2.421,-2.424,-2.4259,-2.4294,-2.4336,-2.4342,-2.4385,-2.4414,-2.4465,-2.4484,-2.4517,-2.4509,-2.4522,-2.4525,-2.4528,-2.4529,-2.445,-2.4524,-2.4524,-2.4524,-2.4523,-2.4523,0,-2.4126,-2.4147,-2.4183,-2.4226,-2.4257,-2.4254,-2.4287,-2.4313,-2.4351,-2.4379,-2.4411,-2.4457,-2.4495,-2.4518,-2.4554,-2.4576,-2.4576,-2.4585,-2.4584,-2.4587,-2.4535,-2.4523,-2.4584,-2.4584,-2.4584,-2.4584,-2.4584,-2.4584,-2.4167,-2.4218,-2.4229,-2.429,-2.431,-2.4354,-2.4373,-2.4398,-2.442,-2.4472,-2.4503,-2.4518,-2.4543,-2.4582,-2.4615,-2.462,-2.4633,-2.4643,-2.4647,-2.4598,-2.4591,-2.4585,-2.4575,-2.4645,-2.4646,-2.4697,-2.4698,-2.4698]},{"header":{"parameterUnit":"m.s-1","parameterCategory":1,"la1":30.2991,"la2":30.254,"lo1":-89.0895,"lo2":-89.0444,"dy":0.0017,"dx":0.0017,"nx":28,"ny":28,"refTime":"2024-04-20T21:00:00:Z","depth":0,"parameterNumber":3,"parameterNumberName":"V-component_of_WINDS"},"data":[0,0,0,0,0,0,0,0,0,0,0,0,0,0,0,0,0,0,0,0,0,0,0,0,0,0,0,0,0,0,0,0,0,0,0,0,0,0,0,0,0,0,0,0,0,0,0,0,0,0,0,0,0,0,0,0,0,0,-8.1117,-8.1119,0,-8.1297,-8.1299,-8.1301,-8.1266,-8.1263,-8.126,-8.1257,-8.1433,-8.144,-8.1448,0,0,0,0,0,0,0,0,0,0,0,0,0,-8.0736,-8.0743,-8.1117,-8.112,-8.1122,-8.1297,-8.1299,-8.1302,-8.1267,-8.1263,-8.1259,-8.1255,-8.143,-8.1439,-8.1448,0,0,0,0,0,0,0,0,0,0,0,0,0,-8.0907,-8.0746,-8.1117,-8.1126,-8.1128,-8.1296,-8.1299,-8.1302,-8.1268,-8.1263,-8.1258,-8.1254,-8.1427,-8.1438,-8.145,-8.1617,0,0,-8.1485,-8.149,0,0,0,0,0,0,0,0,-8.0898,-8.0921,-8.1122,-8.1125,-8.1129,-8.1255,-8.1229,-8.1408,-8.1269,-8.1215,-8.1257,-8.1251,-8.1377,-8.1392,-8.1436,-8.1626,-8.1633,-8.1486,-8.1493,-8.1498,-8.1501,0,0,0,0,0,0,0,-8.0886,-8.0913,-8.1188,-8.1125,-8.1129,-8.1118,-8.1137,-8.1263,-8.132,-8.1219,-8.1217,-8.1239,-8.1377,-8.1425,-8.144,-8.1636,-8.1486,-8.1496,-8.1503,-8.1507,-8.1971,-8.1976,0,0,0,0,0,0,-8.0872,-8.0904,-8.1182,-8.1193,-8.0999,-8.1129,-8.115,-8.1219,-8.1319,-8.133,-8.1243,-8.1237,-8.1408,-8.1427,-8.1446,-8.1649,-8.1498,-8.1508,-8.1515,-8.1966,-8.1972,-8.1978,0,0,0,0,0,0,-8.0864,-8.0897,-8.1175,-8.1048,-8.1083,-8.1141,-8.1218,-8.1225,-8.1273,-8.1337,-8.1346,-8.1282,-8.1405,-8.143,-8.1576,-8.1655,-8.1514,-8.1524,-8.1959,-8.1968,-8.1975,-8.2057,0,0,0,0,0,0,-8.0853,-8.0895,-8.0961,-8.105,-8.109,-8.1304,-8.1223,-8.1232,-8.1294,-8.1287,-8.1376,-8.1386,-8.1403,-8.1559,-8.1587,-8.1668,-8.1533,-8.1952,-8.1963,-8.1973,-8.2047,-8.2066,-8.2083,0,0,0,0,0,-8.084,-8.0975,-8.0964,-8.0998,-8.1174,-8.1309,-8.1331,-8.1351,-8.13,-8.1366,-8.1407,-8.1383,-8.1641,-8.1574,-8.1605,-8.1691,-8.1948,-8.196,-8.1972,-8.2039,-8.2063,-8.2083,0,0,0,0,0,0,-8.089,-8.0987,-8.0976,-8.1145,-8.1219,-8.1303,-8.1387,-8.1375,-8.1463,-8.1453,-8.1471,-8.1491,-8.1639,-8.1679,-8.1602,-8.1858,-8.1787,-8.1806,-8.1827,-8.185,-8.1868,-8.1855,-8.1543,0,0,0,0,0,-8.0922,-8.1026,-8.1103,-8.1244,-8.1282,-8.1328,-8.1388,-8.1396,-8.1473,-8.1504,-8.1556,-8.1629,-8.1727,-8.179,-8.1884,-8.2053,-8.2071,-8.2127,-8.2145,-8.2159,-8.2176,-8.2267,-8.2293,-8.2018,-8.2018,-8.2018,0,0,-8.0986,-8.1052,-8.1116,-8.1256,-8.1315,-8.142,-8.1355,-8.1469,-8.1546,-8.152,-8.1662,-8.1703,-8.1785,-8.1943,-8.2015,-8.1981,-8.2256,-8.2175,-8.2186,-8.2194,-8.2283,-8.2309,-8.2332,-8.2026,-8.2025,-8.2024,0,0,-8.1158,-8.1218,-8.1343,-8.1404,-8.1495,-8.1525,-8.1555,-8.1641,-8.1668,-8.1811,-8.1793,-8.1884,-8.2052,-8.2112,-8.2164,-8.236,-8.234,-8.2389,-8.2483,-8.2572,-8.2594,-8.2613,-8.2683,-8.2707,-8.2405,-8.2405,-8.2405,0,-8.1226,-8.1387,-8.1407,-8.1524,-8.1586,-8.157,-8.1694,-8.1751,-8.1867,-8.1909,-8.187,-8.2081,-8.2135,-8.2307,-8.2355,-8.2398,-8.2431,-8.2379,-8.259,-8.2609,-8.2628,-8.2694,-8.272,-8.2411,-8.241,-8.2409,-8.2409,0,-8.1466,-8.1577,-8.1666,-8.1782,-8.1853,-8.1973,-8.201,-8.2079,-8.2082,-8.2115,-8.226,-8.2325,-8.2431,-8.2472,-8.2475,-8.2645,-8.2621,-8.2586,-8.2514,-8.2659,-8.2721,-8.2747,-8.2418,-8.2416,-8.2415,-8.2413,0,0,-8.1674,-8.1801,-8.1833,-8.1886,-8.1985,-8.207,-8.2189,-8.2296,-8.2355,-8.2435,-8.2533,-8.2676,-8.2645,-8.2704,-8.2713,-8.2791,-8.2941,-8.2746,-8.2748,-8.278,-8.3132,-8.3158,-8.3188,-8.2929,-8.2934,-8.2938,-8.3125,0,-8.1855,-8.2068,-8.209,-8.2279,-8.2381,-8.2368,-8.2471,-8.2541,-8.2575,-8.2665,-8.2701,-8.2803,-8.2753,-8.2789,-8.2866,-8.2907,-8.3012,-8.2894,-8.3019,-8.3023,-8.2999,-8.322,-8.3248,-8.3422,-8.315,-8.3154,-8.3157,0,-8.2095,-8.2185,-8.2386,-8.2472,-8.2515,-8.2608,-8.2708,-8.2795,-8.2874,-8.2893,-8.296,-8.2959,-8.3078,-8.3002,-8.3166,-8.3085,-8.3138,-8.3165,-8.3172,-8.3184,-8.3099,-8.3238,-8.3478,-8.3504,-8.3196,-8.3193,-8.319,0,-8.2227,-8.2398,-8.2541,-8.2586,-8.2689,-8.2755,-8.28,-8.2875,-8.2938,-8.3024,-8.3065,-8.3163,-8.3216,-8.3291,-8.3315,-8.3258,-8.3478,-8.3404,-8.3495,-8.3495,-8.3542,-8.3539,-8.3794,-8.3576,-8.3576,-8.3575,-8.3575,0,-8.2427,-8.255,-8.2602,-8.2689,-8.2826,-8.2849,-8.2982,-8.3024,-8.3091,-8.3184,-8.3177,-8.3264,-8.3291,-8.3382,-8.3401,-8.3533,-8.3557,-8.3574,-8.3578,-8.3576,-8.3573,-8.361,-8.3598,-8.3582,-8.3581,-8.358,-8.3578,0,-8.2597,-8.2637,-8.2791,-8.2878,-8.2902,-8.2999,-8.3072,-8.3155,-8.3187,-8.3306,-8.3334,-8.3385,-8.3492,-8.3524,-8.3651,-8.3664,-8.382,-8.3812,-8.3794,-8.3794,-8.3884,-8.3875,-8.4171,-8.4211,-8.3967,-8.397,-8.3971,0,-8.2722,-8.2817,-8.2915,-8.2978,-8.3028,-8.313,-8.3195,-8.3221,-8.3288,-8.3386,-8.3457,-8.3563,-8.365,-8.3821,-8.3867,-8.3965,-8.3959,-8.4056,-8.3974,-8.3968,-8.3961,-8.3955,-8.3964,-8.4072,-8.4074,-8.4076,-8.4078,0,-8.294,-8.2956,-8.3051,-8.3155,-8.3234,-8.3315,-8.3393,-8.3445,-8.3481,-8.3557,-8.3668,-8.3736,-8.3868,-8.3973,-8.4072,-8.4115,-8.4103,-8.4104,-8.413,-8.4128,-8.4114,-8.4123,-8.3837,-8.4097,-8.4095,-8.4093,-8.4092,-8.4092,-8.3092,-8.3176,-8.3258,-8.3365,-8.3427,-8.3501,-8.3583,-8.3628,-8.3722,-8.3833,-8.3842,-8.3962,-8.4037,-8.417,-8.4219,-8.4311,-8.4282,-8.432,-8.433,-8.4339,-8.4347,-8.41,-8.4329,-8.4328,-8.4328,-8.4327,-8.4327,0,-8.3309,-8.3362,-8.346,-8.3572,-8.3655,-8.3639,-8.3725,-8.3795,-8.3902,-8.3975,-8.4061,-8.4188,-8.4291,-8.4346,-8.4447,-8.451,-8.4507,-8.4536,-8.4531,-8.4541,-8.4366,-8.4334,-8.4537,-8.4537,-8.4537,-8.4537,-8.4537,-8.4537,-8.3432,-8.3573,-8.3598,-8.377,-8.382,-8.3941,-8.3991,-8.4058,-8.4117,-8.426,-8.4346,-8.4383,-8.4448,-8.4554,-8.4646,-8.466,-8.4697,-8.473,-8.4739,-8.4575,-8.4553,-8.4533,-8.4502,-8.4737,-8.4738,-8.4906,-8.4908,-8.4909]}]]